Manchester, NH

11:26 AM EDT on October 17, 2017 (GMT -0400)
Manchester

Weather History for KMHT - May, 2013

Change the Weather History Date:

Saturday, May 11, 2013

  Actual Average Record
Temperature  
Mean Temperature 64 °F 57 °F  
Max Temperature 70 °F 67 °F 92 °F (1953)
Min Temperature 59 °F 46 °F 31 °F (1929)
Degree Days  
Heating Degree Days 1 9  
Month to date heating degree days 114  
Since 1 July heating degree days 6209  
Cooling Degree Days 0 0  
Month to date cooling degree days 0  
Year to date cooling degree days 4  
Growing Degree Days 14 (Base 50)    
Moisture  
Dew Point 59 °F    
Average Humidity 83    
Maximum Humidity 94    
Minimum Humidity 67    
Precipitation  
Precipitation 0.20 in 0.11 in 0.93 in (1951)
Month to date precipitation 1.21  
Year to date precipitation 15.20  
Snow  
Snow 0.00 in - - ()
Month to date snowfall  
Since 1 July snowfall  
Snow Depth -    
Sea Level Pressure  
Sea Level Pressure 29.77 in    
Wind  
Wind Speed 7 mph (South)    
Max Wind Speed 13 mph    
Max Gust Speed 20 mph    
Visibility 9 miles    
Events Rain    
T = Trace of Precipitation, MM = Missing Value Source: NWS Daily Summary

Daily Weather History Graph

Daily Weather History Graph

Search for Another Location

Airport or City:

Trip Planner

Search our weather history database for the weather conditions in past years. The results will help you decide how hot, cold, wet, or windy it might be!

Date:

Astronomy

May. 11, 2013 Rise Set
Actual Time 5:26 AM EDT 7:58 PM EDT
Civil Twilight 4:54 AM EDT 8:30 PM EDT
Nautical Twilight 4:14 AM EDT 9:10 PM EDT
Astronomical Twilight 3:29 AM EDT 9:56 PM EDT
Moon 6:31 AM EDT (5/11) 9:36 PM EDT (5/11)
Length of Visible Light 15h 35m
Length of Day
14h 31m
Waxing Crescent, 3% of the Moon is Illuminated
May 11
Waxing Crescent
May 18
First Quarter
May 25
Full
May 31
Last Quarter
Jun 8
New

Hourly Weather History & Observations

Time (EDT) Temp. Dew Point Humidity Pressure Visibility Wind Dir Wind Speed Gust Speed Precip Events Conditions
12:53 AM 64.0 °F 55.0 °F 73% 29.91 in 10.0 mi SSE 5.8 mph - N/A   Scattered Clouds
1:53 AM 64.0 °F 54.0 °F 70% 29.89 in 10.0 mi SSE 4.6 mph - N/A   Scattered Clouds
2:53 AM 64.9 °F 54.0 °F 68% 29.87 in 10.0 mi South 4.6 mph - N/A   Scattered Clouds
3:53 AM 64.0 °F 53.1 °F 67% 29.84 in 10.0 mi SSE 6.9 mph - N/A   Mostly Cloudy
4:53 AM 63.0 °F 53.1 °F 70% 29.82 in 10.0 mi South 5.8 mph - N/A   Scattered Clouds
5:53 AM 62.1 °F 54.0 °F 75% 29.82 in 10.0 mi South 5.8 mph - 0.00 in Rain Light Rain
6:53 AM 59.0 °F 55.9 °F 90% 29.82 in 7.0 mi South 4.6 mph - 0.03 in Rain Light Rain
7:10 AM 59.0 °F 55.4 °F 88% 29.79 in 6.0 mi South 6.9 mph - 0.00 in Rain Light Rain
7:53 AM 60.1 °F 57.0 °F 90% 29.81 in 7.0 mi South 9.2 mph - 0.02 in Rain Light Rain
8:49 AM 62.6 °F 59.0 °F 88% 29.77 in 7.0 mi South 8.1 mph - 0.00 in   Mostly Cloudy
8:53 AM 62.1 °F 59.0 °F 90% 29.80 in 8.0 mi South 10.4 mph - 0.00 in   Mostly Cloudy
9:53 AM 64.9 °F 59.0 °F 81% 29.78 in 10.0 mi South 12.7 mph - N/A   Mostly Cloudy
10:53 AM 66.0 °F 59.0 °F 78% 29.78 in 10.0 mi South 10.4 mph - N/A   Overcast
11:53 AM 66.9 °F 57.9 °F 73% 29.78 in 10.0 mi South 11.5 mph - N/A   Overcast
12:53 PM 66.9 °F 61.0 °F 81% 29.77 in 10.0 mi South 6.9 mph - 0.00 in Rain Light Rain
1:53 PM 69.1 °F 60.1 °F 73% 29.75 in 10.0 mi SSW 11.5 mph 18.4 mph 0.00 in   Overcast
2:53 PM 66.9 °F 62.1 °F 84% 29.73 in 10.0 mi South 10.4 mph - 0.02 in   Overcast
3:53 PM 68.0 °F 61.0 °F 78% 29.73 in 10.0 mi SSW 11.5 mph - N/A   Overcast
4:53 PM 68.0 °F 59.0 °F 73% 29.73 in 10.0 mi SSW 12.7 mph 19.6 mph N/A   Overcast
5:53 PM 64.0 °F 61.0 °F 90% 29.73 in 5.0 mi South 9.2 mph - 0.03 in Rain Light Rain
6:53 PM 64.0 °F 61.0 °F 90% 29.75 in 4.0 mi SSW 6.9 mph - 0.10 in Rain Light Rain
7:13 PM 64.4 °F 60.8 °F 88% 29.70 in 10.0 mi SSE 9.2 mph - 0.00 in   Mostly Cloudy
7:53 PM 63.0 °F 61.0 °F 93% 29.74 in 10.0 mi South 9.2 mph - 0.00 in   Mostly Cloudy
8:10 PM 62.6 °F 60.8 °F 94% 29.70 in 8.0 mi South 6.9 mph - N/A   Mostly Cloudy
8:53 PM 63.0 °F 61.0 °F 93% 29.73 in 10.0 mi South 5.8 mph - N/A   Mostly Cloudy
9:00 PM 62.6 °F 60.8 °F 94% 29.69 in 10.0 mi South 4.6 mph - N/A   Overcast
9:38 PM 62.6 °F 60.8 °F 94% 29.70 in 10.0 mi South 6.9 mph - N/A   Overcast
9:53 PM 63.0 °F 61.0 °F 93% 29.73 in 10.0 mi SSE 3.5 mph - N/A   Overcast
10:53 PM 63.0 °F 60.1 °F 90% 29.72 in 10.0 mi South 5.8 mph - N/A   Overcast
11:53 PM 62.1 °F 60.1 °F 93% 29.72 in 9.0 mi South 4.6 mph - N/A   Overcast